Weather History for Sulphur Springs, TX

Change the Weather History Date:

Friday, September 13, 2013

  Actual Average (KGVT) Record (KGVT)
Temperature  
Mean Temperature 84 °F -  
Max Temperature 96 °F 84 °F 105 °F (2011)
Min Temperature 73 °F 67 °F 57 °F (2006)
Cooling Degree Days 19    
Growing Degree Days 34 (Base 50)    
Moisture  
Dew Point 66 °F    
Average Humidity 56    
Maximum Humidity 80    
Minimum Humidity 30    
Precipitation  
Precipitation 0.00 in - - ()
Sea Level Pressure  
Sea Level Pressure 29.96 in    
Wind  
Wind Speed 4 mph (ENE)    
Max Wind Speed 15 mph    
Max Gust Speed 20 mph    
Visibility 10 miles    
Events      
Averages and records for this station are not official NWS values.
T = Trace of Precipitation, MM = Missing Value Source: NWS Daily Summary

Daily Weather History Graph

Daily Weather History Graph

Search for Another Location

Airport:

Trip Planner

Search our weather history database for the weather conditions in past years. The results will help you decide how hot, cold, wet, or windy it might be!

Date:

Astronomy

Sep. 13, 2013 Rise Set
Actual Time 7:04 AM CDT 7:31 PM CDT
Civil Twilight 6:40 AM CDT 7:55 PM CDT
Nautical Twilight 6:10 AM CDT 8:25 PM CDT
Astronomical Twilight 5:41 AM CDT 8:54 PM CDT
Moon 3:08 PM CDT (9/13) 12:48 AM CDT (9/13)
Length of Visible Light 13h 15m
Length of Day
12h 26m
First Quarter, 61% of the Moon is Illuminated
Sep 13
First Quarter
Sep 19
Full
Sep 26
Last Quarter
Oct 4
New
Oct 11
First Quarter

Hourly Weather History & Observations

Time (CDT) Temp. Heat Index Dew Point Humidity Pressure Visibility Wind Dir Wind Speed Gust Speed Precip Events Conditions
12:15 AM 80.2 °F 82.5 °F 66.4 °F 63% 30.00 in 10.0 mi ENE 3.5 mph - N/A   Clear
12:35 AM 79.5 °F - 66.4 °F 64% 29.99 in 10.0 mi East 3.5 mph - N/A   Clear
12:55 AM 79.2 °F - 66.4 °F 65% 29.99 in 10.0 mi Calm Calm - N/A   Clear
1:15 AM 79.0 °F - 67.5 °F 68% 29.99 in 10.0 mi Calm Calm - N/A   Clear
1:35 AM 78.6 °F - 67.8 °F 69% 29.99 in 10.0 mi Calm Calm - N/A   Clear
1:55 AM 77.9 °F - 68.9 °F 74% 29.99 in 10.0 mi Calm Calm - N/A   Clear
2:15 AM 78.6 °F - 68.9 °F 72% 29.99 in 10.0 mi Calm Calm - N/A   Clear
2:35 AM 78.3 °F - 68.4 °F 71% 29.99 in 10.0 mi Calm Calm - N/A   Clear
2:55 AM 78.8 °F - 68.2 °F 70% 29.99 in 10.0 mi Calm Calm - N/A   Clear
3:15 AM 78.6 °F - 67.5 °F 68% 29.99 in 10.0 mi Calm Calm - N/A   Clear
3:35 AM 77.9 °F - 68.5 °F 73% 29.99 in 10.0 mi Calm Calm - N/A   Clear
3:55 AM 78.1 °F - 68.2 °F 71% 29.98 in 10.0 mi NNE 4.6 mph - N/A   Clear
4:15 AM 77.5 °F - 68.0 °F 72% 29.98 in 10.0 mi NE 3.5 mph - N/A   Clear
4:35 AM 77.0 °F - 68.0 °F 74% 29.99 in 10.0 mi Calm Calm - N/A   Scattered Clouds
4:55 AM 76.8 °F - 67.5 °F 73% 29.98 in 10.0 mi Calm Calm - N/A   Clear
5:15 AM 75.9 °F - 67.1 °F 74% 29.98 in 10.0 mi NNE 3.5 mph - N/A   Clear
5:35 AM 75.4 °F - 67.3 °F 76% 29.98 in 10.0 mi Calm Calm - N/A   Clear
5:55 AM 75.0 °F - 67.5 °F 77% 29.98 in 10.0 mi NNE 3.5 mph - N/A   Clear
6:15 AM 74.7 °F - 67.5 °F 78% 29.98 in 10.0 mi Calm Calm - N/A   Clear
6:35 AM 74.3 °F - 67.1 °F 78% 29.99 in 10.0 mi Calm Calm - N/A   Clear
6:55 AM 74.3 °F - 67.1 °F 78% 29.99 in 10.0 mi East 3.5 mph - N/A   Clear
7:15 AM 73.9 °F - 67.1 °F 79% 29.99 in 7.0 mi Calm Calm - N/A   Clear
7:35 AM 73.8 °F - 67.1 °F 80% 29.99 in 7.0 mi Calm Calm - N/A   Clear
7:55 AM 74.3 °F - 67.6 °F 80% 30.00 in 7.0 mi Calm Calm - N/A   Clear
8:15 AM 74.5 °F - 67.3 °F 78% 30.00 in 7.0 mi NE 3.5 mph - N/A   Clear
8:35 AM 75.6 °F - 67.3 °F 75% 30.01 in 10.0 mi ENE 5.8 mph - N/A   Clear
8:55 AM 77.9 °F - 67.6 °F 71% 30.00 in 10.0 mi East 8.1 mph - N/A   Clear
9:15 AM 80.1 °F 82.6 °F 67.6 °F 66% 30.01 in 10.0 mi ESE 8.1 mph - N/A   Clear
9:35 AM 82.0 °F 84.7 °F 67.3 °F 61% 30.01 in 10.0 mi ESE 6.9 mph - N/A   Clear
9:55 AM 83.5 °F 86.2 °F 67.1 °F 58% 30.01 in 10.0 mi East 8.1 mph - N/A   Clear
10:15 AM 84.4 °F 87.1 °F 67.3 °F 56% 30.01 in 10.0 mi East 6.9 mph - N/A   Clear
10:35 AM 86.4 °F 89.0 °F 67.1 °F 52% 30.01 in 10.0 mi SE 9.2 mph - N/A   Clear
10:55 AM 86.9 °F 89.6 °F 66.9 °F 51% 30.01 in 10.0 mi ESE 5.8 mph - N/A   Clear
11:15 AM 88.2 °F 90.9 °F 66.6 °F 49% 30.01 in 10.0 mi ESE 9.2 mph - N/A   Clear
11:35 AM 89.4 °F 91.9 °F 65.8 °F 46% 30.01 in 10.0 mi ESE 5.8 mph - N/A   Clear
11:55 AM 90.0 °F 92.0 °F 65.5 °F 44% 30.00 in 10.0 mi East 8.1 mph - N/A   Clear
12:15 PM 90.7 °F 92.8 °F 65.5 °F 43% 29.99 in 10.0 mi ESE 5.8 mph - N/A   Clear
12:35 PM 91.9 °F 94.1 °F 65.3 °F 41% 29.99 in 10.0 mi East 8.1 mph - N/A   Clear
12:55 PM 93.4 °F 95.6 °F 65.3 °F 39% 29.97 in 10.0 mi ESE 10.4 mph - N/A   Scattered Clouds
1:15 PM 92.3 °F 94.7 °F 65.1 °F 41% 29.97 in 10.0 mi ESE 5.8 mph - N/A   Scattered Clouds
1:35 PM 94.3 °F 96.2 °F 64.4 °F 37% 29.96 in 10.0 mi ESE 9.2 mph - N/A   Scattered Clouds
1:55 PM 93.9 °F 95.2 °F 63.3 °F 36% 29.95 in 10.0 mi ENE 5.8 mph - N/A   Scattered Clouds
2:15 PM 94.1 °F 95.0 °F 62.6 °F 35% 29.94 in 10.0 mi ENE 6.9 mph - N/A   Scattered Clouds
2:35 PM 94.3 °F 94.9 °F 61.9 °F 34% 29.93 in 10.0 mi ESE 10.4 mph - N/A   Scattered Clouds
2:55 PM 95.5 °F 96.5 °F 62.2 °F 33% 29.92 in 10.0 mi East 9.2 mph - N/A   Clear
3:15 PM 95.4 °F 95.7 °F 61.3 °F 32% 29.90 in 10.0 mi NNE 6.9 mph - N/A   Clear
3:35 PM 93.9 °F 94.8 °F 62.6 °F 35% 29.89 in 10.0 mi ENE 9.2 mph - N/A   Clear
3:55 PM 94.5 °F 95.2 °F 62.2 °F 34% 29.88 in 10.0 mi East 9.2 mph - N/A   Scattered Clouds
4:15 PM 95.4 °F 95.7 °F 60.8 °F 32% 29.88 in 10.0 mi East 5.8 mph - N/A   Clear
4:35 PM 94.8 °F 94.9 °F 61.0 °F 32% 29.87 in 10.0 mi East 12.7 mph - N/A   Clear
4:55 PM 95.7 °F 95.5 °F 60.1 °F 30% 29.87 in 10.0 mi East 8.1 mph - N/A   Clear
5:15 PM 93.9 °F 94.0 °F 61.0 °F 33% 29.87 in 10.0 mi ENE 9.2 mph - N/A   Scattered Clouds
5:35 PM 93.6 °F 93.4 °F 60.4 °F 33% 29.87 in 10.0 mi East 6.9 mph - N/A   Clear
5:55 PM 93.2 °F 93.7 °F 61.9 °F 35% 29.87 in 10.0 mi ENE 9.2 mph - N/A   Scattered Clouds
6:15 PM 93.2 °F 93.3 °F 61.2 °F 34% 29.87 in 10.0 mi East 11.5 mph - N/A   Clear
6:35 PM 92.3 °F 92.3 °F 61.3 °F 35% 29.87 in 10.0 mi ENE 15.0 mph 19.6 mph N/A   Clear
6:55 PM 91.4 °F 91.4 °F 61.0 °F 36% 29.88 in 10.0 mi ENE 9.2 mph - N/A   Clear
7:15 PM 90.5 °F 91.1 °F 62.6 °F 39% 29.89 in 10.0 mi ENE 11.5 mph 17.3 mph N/A   Scattered Clouds
7:35 PM 86.5 °F 89.0 °F 66.2 °F 51% 29.89 in 10.0 mi NE 10.4 mph - N/A   Scattered Clouds
7:55 PM 85.1 °F 87.4 °F 66.4 °F 53% 29.89 in 10.0 mi NE 9.2 mph - N/A   Clear
8:15 PM 83.8 °F 86.3 °F 66.4 °F 56% 29.90 in 10.0 mi NE 8.1 mph - N/A   Clear
8:35 PM 83.3 °F 85.9 °F 67.1 °F 58% 29.91 in 10.0 mi NE 8.1 mph - N/A   Clear
8:55 PM 82.6 °F 85.1 °F 66.7 °F 59% 29.93 in 10.0 mi NE 6.9 mph - N/A   Clear
9:15 PM 82.4 °F 84.8 °F 66.7 °F 59% 29.94 in 10.0 mi ENE 4.6 mph - N/A   Clear
9:35 PM 82.0 °F 84.3 °F 66.4 °F 59% 29.95 in 10.0 mi NE 4.6 mph - N/A   Clear
9:55 PM 81.1 °F 83.4 °F 66.4 °F 61% 29.95 in 10.0 mi ENE 4.6 mph - N/A   Clear
10:15 PM 81.0 °F 83.2 °F 66.6 °F 61% 29.95 in 10.0 mi ENE 4.6 mph - N/A   Clear
10:35 PM 80.8 °F 83.1 °F 66.6 °F 62% 29.95 in 10.0 mi ENE 5.8 mph - N/A   Clear
10:55 PM 80.6 °F 82.7 °F 66.2 °F 61% 29.95 in 10.0 mi ENE 5.8 mph - N/A   Clear
11:15 PM 80.4 °F 82.4 °F 65.7 °F 61% 29.95 in 10.0 mi ENE 5.8 mph - N/A   Clear
11:35 PM 80.2 °F 82.0 °F 64.8 °F 59% 29.96 in 10.0 mi East 5.8 mph - N/A   Clear
11:55 PM 80.6 °F 82.0 °F 63.5 °F 56% 29.95 in 10.0 mi East 6.9 mph - N/A   Clear